This is the latest recevied weather packets stored in our database for station/object KD9WYV. If no packets are shown the sender has not sent any weather packets the latest 10 day(s).
| Time | Temp. | Humidity | Pressure | Rain* | Wind** | Luminosity | Snow |
|---|---|---|---|---|---|---|---|
| 1777560461 | 10° C | 56% | 1018.3 hPa | 0 mm | - | 689 W/m² | - |
| 1777560158 | 10° C | 55% | 1018.4 hPa | 0 mm | - | 674 W/m² | - |
| 1777559855 | 9.44° C | 59% | 1018.5 hPa | 0 mm | - | 658 W/m² | - |
| 1777559551 | 9.44° C | 57% | 1018.4 hPa | 0 mm | - | 641 W/m² | - |
| 1777559248 | 9.44° C | 55% | 1018.4 hPa | 0 mm | - | 626 W/m² | - |
| 1777558944 | 8.89° C | 58% | 1018.3 hPa | 0 mm | - | 607 W/m² | - |
| 1777558640 | 9.44° C | 56% | 1018.3 hPa | 0 mm | - | 592 W/m² | - |
| 1777558335 | 9.44° C | 57% | 1018.3 hPa | 0 mm | - | 575 W/m² | - |
| 1777558033 | 9.44° C | 58% | 1018.1 hPa | 0 mm | - | 552 W/m² | - |
| 1777557728 | 9.44° C | 60% | 1018.4 hPa | 0 mm | - | 536 W/m² | - |
| 1777557425 | 8.33° C | 62% | 1018.2 hPa | 0 mm | - | 518 W/m² | - |
| 1777557121 | 8.33° C | 60% | 1018.3 hPa | 0 mm | - | 502 W/m² | - |
| 1777556817 | 7.78° C | 62% | 1018.6 hPa | 0 mm | - | 482 W/m² | - |
| 1777556514 | 7.78° C | 63% | 1018.4 hPa | 0 mm | - | 463 W/m² | - |
| 1777556213 | 7.78° C | 66% | 1018.5 hPa | 0 mm | - | 443 W/m² | - |
| 1777555909 | 7.78° C | 66% | 1018.3 hPa | 0 mm | - | 422 W/m² | - |
| 1777555605 | 7.78° C | 68% | 1018.1 hPa | 0 mm | - | 402 W/m² | - |
| 1777555302 | 7.78° C | 66% | 1018.1 hPa | 0 mm | - | 383 W/m² | - |
| 1777554998 | 7.22° C | 68% | 1018.2 hPa | 0 mm | - | 363 W/m² | - |
| 1777554695 | 7.22° C | 68% | 1018 hPa | 0 mm | - | 344 W/m² | - |
| 1777554392 | 7.22° C | 70% | 1018 hPa | 0 mm | - | 326 W/m² | - |
| 1777554089 | 7.22° C | 68% | 1018 hPa | 0 mm | - | 305 W/m² | - |
| 1777553786 | 7.22° C | 72% | 1017.8 hPa | 0 mm | - | 285 W/m² | - |
| 1777553483 | 6.67° C | 73% | 1017.8 hPa | 0 mm | - | 267 W/m² | - |
| 1777553178 | 6.67° C | 74% | 1017.6 hPa | 0 mm | - | 249 W/m² | - |
* Rain latest hour (hover to see other rain measurements)
** Current wind speed in m/s (hover to see current wind gust speed)